Wind_Speed
19 17 16 15 12 10 9 8 9 10 10 9 10 10 11 12 13 6 10 15 23 11 9 3 7 7 7 4 4 3 2 5 6 5 7 8 5 6 6 3 2 3 7 5 10
19 19 17 16 14 12 10 8 9 9 9 9 9 8 10 11 11 13 26 20 18 15 18 9 4 5 3 5 3 4 4 6 6 3 5 11 9 2 5 7 5 4 4 7 5
18 18 18 17 16 14 12 10 8 8 8 8 7 7 8 8 3 9 3 15 23 18 13 10 6 1 4 3 4 4 6 5 10 12 5 5 7 4 3 0 2 2 3 3 5
19 18 18 18 17 15 13 11 9 8 8 7 6 6 6 1 4 3 6 9 25 19 12 5 4 3 5 6 6 2 6 8 14 14 5 7 4 3 4 6 6 4 3 5 5
19 19 18 18 19 18 16 12 10 9 7 6 4 4 1 1 9 5 6 14 26 21 16 6 5 5 5 6 4 5 8 9 14 14 7 6 9 8 6 6 8 6 6 4 3
19 19 19 20 19 19 19 15 13 10 7 6 3 2 1 3 4 8 6 23 23 22 16 9 8 8 4 8 8 7 9 12 11 14 6 6 6 3 6 6 7 5 8 9 6
20 20 20 22 21 22 21 18 15 12 7 5 3 1 3 12 4 7 11 19 20 24 7 22 19 1 0 7 6 7 6 7 8 9 8 8 6 6 9 7 9 10 8 9 9
22 23 21 23 23 23 21 18 14 12 6 4 2 2 7 6 6 9 12 11 19 17 21 17 17 7 5 3 7 3 3 2 7 6 6 6 9 8 10 9 11 11 9 8 9
22 23 25 24 24 23 22 16 10 6 6 6 4 3 9 11 9 19 19 8 19 17 19 15 7 3 3 4 5 6 2 4 9 4 3 6 10 12 10 9 11 10 10 10 9
24 22 25 25 25 23 22 8 3 1 6 4 4 3 8 5 8 15 23 22 5 6 5 6 4 2 3 4 4 4 2 5 6 5 3 9 11 20 12 11 11 10 11 9 9
23 24 23 27 24 19 14 3 3 0 6 10 8 5 3 6 16 10 18 13 4 5 4 2 4 5 8 7 7 5 5 8 11 11 4 6 7 9 10 5 7 8 7 9 10
25 26 26 25 21 15 8 4 6 4 5 18 13 11 16 12 3 6 15 6 5 5 4 2 7 11 9 7 7 8 10 12 8 10 7 4 7 5 5 5 8 9 8 9 7
27 26 28 24 20 13 14 18 6 12 1 4 8 6 7 4 7 9 11 6 4 5 5 6 9 10 9 10 8 9 9 6 8 6 2 3 6 5 7 4 6 6 8 7 12
29 27 27 24 6 3 7 5 21 9 3 3 6 5 4 4 2 7 15 7 3 8 6 6 15 11 7 8 8 15 12 8 5 1 5 2 5 4 6 8 6 10 9 10 11
31 31 27 16 9 4 2 14 6 5 3 5 5 4 5 7 2 4 15 4 8 7 6 7 3 2 3 3 3 8 6 6 1 1 3 7 2 7 5 9 10 10 11 13 16
36 33 22 2 8 10 18 3 7 2 3 3 5 7 5 3 3 4 5 5 3 2 1 5 3 3 3 7 3 5 1 5 4 3 2 5 4 2 5 5 8 9 7 10 3
40 26 12 8 6 10 19 5 3 0 4 3 5 6 5 5 4 8 5 4 4 3 4 4 4 2 4 2 7 9 6 3 4 3 5 3 3 7 3 4 5 4 6 12 12
33 10 4 11 11 13 10 5 3 4 6 6 6 8 6 6 4 5 6 4 3 5 2 3 1 3 2 4 1 2 4 4 4 3 4 5 4 4 3 5 11 11 9 12 10
25 7 5 4 5 4 4 4 3 5 7 2 6 4 3 3 5 3 4 2 3 9 7 4 4 2 11 5 3 4 4 4 3 3 2 4 5 6 4 8 10 10 9 9 8
16 7 6 6 4 2 3 0 4 11 4 5 3 3 3 4 4 4 3 4 4 6 1 1 1 5 6 5 4 4 3 1 3 2 4 4 4 5 4 7 9 8 8 9 9
5 3 3 14 11 4 1 4 4 4 5 4 3 3 4 3 4 2 2 3 4 3 7 3 4 5 4 2 2 5 4 3 3 4 4 2 5 4 6 5 6 4 6 6 6
6 2 6 17 3 2 3 3 2 3 4 5 2 2 3 3 3 2 1 3 3 2 3 3 4 0 4 7 5 3 1 3 4 3 2 2 7 3 4 7 8 6 6 8 7
3 3 1 8 3 1 4 6 4 3 5 4 7 3 3 3 3 1 4 4 6 4 4 0 3 3 8 5 6 6 3 3 4 3 6 4 4 5 13 11 9 12 15 6 4
2 3 4 3 1 3 3 3 2 4 5 4 3 6 4 2 1 2 3 2 5 4 8 7 2 5 5 4 1 5 7 5 6 4 4 11 16 16 18 13 10 14 8 7 5
2 2 1 1 3 0 1 1 4 2 3 4 6 5 4 3 3 3 4 4 5 8 4 5 4 3 4 6 5 8 12 13 9 9 10 11 16 16 8 2 3 1 5 8 6
2 3 4 3 4 2 2 5 6 4 4 4 5 4 6 4 2 2 2 2 1 2 3 3 3 3 4 8 10 13 14 13 15 13 13 14 13 4 2 1 5 7 6 6 5
6 5 2 5 4 1 1 2 4 3 7 7 4 3 7 3 1 2 5 5 5 5 3 4 5 3 4 4 7 7 6 7 6 2 3 2 1 3 5 6 4 3 4 5 7
Wind_Direction
347 346 346 347 341 329 310 296 288 285 285 289 290 297 301 306 308 274 229 221 221 185 154 148 211 223 193 221 213 156 111 220 226 188 271 309 339 321 300 111 54 136 130 171 120
346 344 342 344 346 339 327 311 299 294 293 290 292 300 306 320 312 253 249 235 218 194 222 229 242 161 176 202 223 146 188 234 217 230 269 319 312 245 20 7 1 73 66 113 82
343 343 341 343 340 342 335 324 309 296 288 288 296 302 313 331 306 245 257 232 207 195 211 196 219 108 211 161 217 194 205 232 274 252 240 255 297 304 141 236 210 295 156 143 90
340 341 339 339 341 339 336 327 313 295 286 287 296 307 321 333 206 242 317 223 186 176 191 179 156 191 181 198 217 252 242 226 256 257 251 254 252 240 187 224 194 222 238 117 107
340 341 341 337 336 337 335 328 320 308 290 281 295 326 73 131 250 265 316 155 174 183 198 177 164 180 178 191 229 178 258 257 251 258 238 269 258 244 203 252 278 267 268 233 173
339 338 339 337 333 331 331 329 323 317 295 286 284 320 139 255 277 265 191 162 176 183 200 173 201 203 246 209 159 220 226 253 266 261 243 213 257 218 264 241 273 255 253 258 204
338 334 334 333 330 326 325 322 320 317 295 278 252 206 250 238 50 180 182 177 178 187 174 211 225 159 39 322 242 242 252 285 259 249 226 188 266 220 247 261 259 272 253 250 234
332 330 330 329 326 322 317 313 311 305 271 241 239 233 248 256 242 215 196 189 196 201 207 202 220 214 179 240 355 345 95 305 280 225 243 127 258 263 248 239 247 253 256 247 239
329 327 326 327 326 319 313 308 301 296 251 182 166 195 266 304 190 214 204 198 197 211 224 252 265 205 47 73 5 7 248 291 286 218 251 162 264 255 252 234 237 244 244 228 227
326 326 325 326 325 318 314 310 238 74 123 153 268 331 272 232 201 192 200 215 175 203 250 186 56 52 33 82 216 242 287 279 266 290 290 277 263 264 234 222 229 243 250 219 200
331 328 326 326 322 316 322 111 87 185 226 199 189 234 280 272 188 198 188 187 193 122 161 197 90 217 227 204 206 240 244 254 275 270 236 243 254 296 253 222 233 243 220 205 208
338 334 330 331 319 306 281 232 216 86 264 226 237 246 278 274 271 190 192 149 133 166 171 28 217 222 221 225 227 242 251 270 282 271 191 302 307 301 312 246 201 208 222 235 250
337 337 333 328 315 285 224 230 175 356 181 248 200 206 231 183 198 189 154 180 143 160 176 184 242 216 231 260 247 247 224 227 217 283 216 287 317 323 303 302 300 246 228 235 223
335 336 331 325 301 270 236 301 238 262 39 244 184 247 200 166 245 174 180 150 174 187 200 212 244 242 259 244 247 254 239 227 253 31 272 85 277 302 281 303 270 272 278 256 237
334 335 330 313 283 235 222 354 139 137 111 153 163 184 162 155 160 204 174 131 184 211 128 240 64 20 261 209 296 239 232 230 199 119 48 327 87 269 334 305 290 288 287 287 252
335 332 328 334 222 277 342 23 148 61 125 224 142 176 126 184 275 145 116 96 130 92 237 233 238 232 227 295 291 295 44 39 62 90 8 250 194 273 268 275 301 302 339 336 140
333 331 298 223 234 331 343 125 64 129 345 198 179 151 166 166 212 139 130 115 122 80 298 352 279 247 238 347 12 35 48 358 343 348 220 21 357 227 295 346 298 271 108 70 59
335 340 293 258 276 307 345 53 95 355 265 264 145 142 178 159 201 150 136 154 218 164 130 163 342 105 346 132 63 21 139 147 236 213 254 342 245 254 116 11 14 58 335 82 86
339 331 293 257 276 300 66 60 174 218 245 85 48 81 146 40 96 110 136 190 233 176 170 186 241 63 67 39 74 321 61 155 131 347 110 238 283 319 53 49 41 55 50 41 49
328 338 272 181 201 96 72 130 240 220 7 57 105 54 87 1 66 72 37 347 66 45 62 213 15 357 2 33 42 119 203 8 17 328 280 292 253 233 37 52 39 33 15 21 15
331 21 214 166 156 63 188 227 223 36 49 56 95 82 82 98 72 56 58 12 58 33 61 76 93 297 29 15 57 1 0 17 100 127 219 262 255 201 151 124 99 62 9 345 348
341 37 155 162 67 98 247 271 164 98 30 58 104 120 130 103 75 121 219 111 71 72 70 335 132 321 262 278 283 180 95 95 132 282 300 294 254 45 90 11 342 312 225 223 217
343 276 19 183 157 243 265 266 65 76 45 45 35 52 91 120 97 40 79 107 97 80 138 261 23 21 342 5 3 70 102 123 99 100 233 260 246 329 330 316 286 286 291 300 235
355 351 329 49 201 113 301 314 110 46 55 76 45 48 78 85 154 116 117 210 106 95 110 83 102 160 200 235 194 312 312 240 195 183 232 243 281 280 280 292 248 276 268 266 260
172 280 199 328 335 12 110 288 136 109 88 62 19 74 121 83 27 75 32 44 53 138 76 106 184 196 252 273 294 287 273 274 252 232 230 265 258 271 287 317 0 297 341 59 50
53 36 338 290 290 11 9 24 91 58 55 65 95 53 66 87 87 125 58 81 200 227 109 19 209 163 258 245 258 275 281 277 265 261 259 262 266 333 225 40 27 23 53 35 13
348 336 103 297 325 48 219 48 56 90 38 67 115 91 76 34 357 237 185 188 199 149 131 143 138 115 262 346 321 283 239 257 234 136 213 220 213 309 2 348 348 76 41 353 328
Height
803 800 796 792 789 786 783 781 780 780 779 779 779 778 778 776 772 771 767 760 764 766 768 770 773 772 775 777 774 773 804 810 794 787 774 756 763 747 735 739 735 734 739 739 741
801 798 794 791 788 785 781 779 777 776 776 776 776 776 775 773 769 764 750 754 759 762 766 768 770 770 778 776 775 784 802 792 772 767 770 761 758 754 751 754 748 742 738 738 740
800 797 794 789 786 783 780 777 775 774 774 774 773 773 772 771 769 749 742 745 753 759 763 765 769 771 778 772 775 777 790 775 764 760 763 765 762 750 754 759 750 748 744 743 741
799 795 792 789 785 782 779 777 774 773 772 771 771 771 769 769 762 741 741 739 749 757 762 763 769 775 779 779 771 780 768 767 759 757 761 764 753 755 751 750 742 739 738 740 742
796 793 790 787 784 780 777 775 773 771 770 769 769 769 769 770 756 739 739 739 748 754 757 761 769 771 776 774 772 776 769 761 754 752 755 754 757 752 750 741 737 736 735 738 740
793 791 788 785 782 778 775 772 770 769 768 768 767 768 770 769 739 738 740 742 746 752 755 758 759 761 763 767 772 761 763 761 754 752 752 755 752 749 742 736 738 737 737 737 738
790 788 785 782 780 776 772 769 767 766 765 766 767 768 769 753 739 739 741 742 745 747 751 753 753 759 756 762 755 758 768 762 756 752 753 747 758 753 739 734 737 737 735 734 734
787 784 781 779 776 773 769 766 764 763 763 763 765 767 759 737 738 740 741 743 744 746 748 748 752 756 758 752 758 762 767 778 757 745 742 749 769 747 735 738 740 736 734 733 731
785 781 778 775 772 769 765 762 762 761 762 763 766 768 754 735 736 734 738 738 741 744 746 746 749 753 752 768 784 779 785 776 764 744 748 754 764 741 733 736 738 735 732 730 730
782 779 774 771 768 766 761 758 759 761 763 765 765 769 742 731 727 730 734 736 740 742 748 749 757 766 772 783 800 785 781 775 773 752 748 758 759 739 731 733 735 732 730 728 727
777 775 772 766 764 762 759 758 762 763 760 749 743 740 729 724 725 728 731 736 738 743 761 752 772 781 771 770 768 769 775 779 762 748 752 758 757 745 731 730 734 734 729 727 725
773 770 767 763 759 758 758 755 742 744 746 737 737 736 729 729 732 726 729 740 747 760 756 765 777 762 757 760 764 768 775 775 763 747 752 750 751 739 732 730 729 728 727 727 724
769 765 761 757 754 752 750 739 736 737 741 729 728 730 725 723 727 729 728 735 745 757 760 771 758 748 755 758 764 764 770 767 765 748 744 744 758 747 735 726 722 722 722 720 719
764 760 757 752 752 748 743 731 734 741 752 731 727 721 719 718 727 718 722 732 741 754 756 764 746 751 755 759 754 766 744 746 750 758 779 747 789 755 742 740 729 724 722 719 716
759 755 751 750 747 744 733 733 734 742 765 727 722 711 714 724 721 721 718 728 745 747 753 759 749 751 755 749 744 753 736 741 743 758 765 767 782 765 744 744 736 725 719 711 702
753 748 745 744 743 730 730 734 736 755 757 728 719 722 726 723 722 718 722 724 730 742 743 748 738 741 742 738 736 734 741 751 759 772 791 770 775 768 756 744 734 721 718 712 705
745 740 739 740 734 729 730 734 757 759 734 729 727 724 728 731 728 724 732 741 753 765 765 752 747 737 733 744 745 749 765 788 792 792 794 764 772 770 740 734 731 726 721 716 718
737 734 733 731 730 731 730 745 758 746 737 715 715 722 734 728 731 730 739 750 743 750 763 769 768 744 738 749 755 754 765 794 795 801 789 768 779 759 739 735 729 727 732 718 724
735 731 730 727 729 732 740 756 755 750 725 717 718 728 728 727 731 734 742 748 744 744 766 767 761 742 742 742 746 757 772 768 785 791 798 784 763 747 737 741 736 736 736 735 733
736 732 728 726 729 733 745 747 738 723 712 719 737 733 745 742 742 744 746 744 745 743 743 757 769 753 748 743 746 755 754 779 797 803 799 786 772 765 751 754 746 745 743 740 737
736 735 724 725 729 740 751 742 729 715 715 724 733 738 741 745 744 750 749 747 743 745 745 753 770 771 758 761 767 773 776 771 777 786 799 800 782 750 756 753 753 747 742 739 739
742 739 724 726 741 743 749 732 719 720 715 721 724 730 739 741 746 749 750 746 741 744 761 764 775 781 773 761 759 763 770 779 797 793 789 788 774 752 754 751 748 746 741 736 733
753 744 724 725 746 744 737 727 720 723 726 729 733 730 734 746 755 748 746 745 743 753 761 764 784 796 785 776 768 773 774 779 786 795 794 791 776 747 750 751 746 744 737 737 733
754 746 735 731 734 732 735 731 729 722 728 729 734 734 741 747 746 752 749 747 747 755 756 763 782 788 800 784 787 784 778 775 780 797 788 778 772 762 754 750 747 740 739 736 734
752 746 743 745 739 735 734 732 733 736 729 730 740 742 746 758 757 758 758 758 758 757 765 774 788 784 784 781 778 779 777 772 778 778 783 767 765 753 750 747 743 739 738 737 739
753 754 748 746 737 733 737 734 736 737 738 745 751 749 750 758 760 764 764 762 764 766 770 779 791 783 786 778 776 775 768 765 760 759 759 757 756 748 744 742 742 745 743 741 739
755 752 752 747 740 739 739 736 741 737 747 745 749 751 761 762 758 758 760 762 763 767 775 781 790 795 788 780 779 781 764 755 752 758 758 759 757 756 753 751 749 746 744 742 739